Home   Weather   Marrakech   Past weeks

Flag for Morocco Past Weather in Marrakech, Morocco — Yesterday and Last 2 Weeks

Now
75 °F

Clear.


Feels Like: 78 °F
Forecast: 62 / 88 °F
Wind: 7 mph from North

Location: Marrakech Airport

Current Time: Sep 25, 2016 at 11:39:07 PM

Latest Report: Sep 25, 2016 at 11:00 PM


Visibility: 10 mi

Pressure: 30.07 "Hg

Humidity: 54%

Dew Point: 57 °F

Location of MarrakechLocation

Past Weather in Marrakech — Graph

°F

Marrakech Temperature Yesterday

Maximum temperature yesterday: 90 °F (at 5:00 PM)
Minimum temperature yesterday: 61 °F (at 6:30 AM)
Average temperature yesterday: 74 °F

High & Low Weather Summary for the Past Weeks

 TemperatureHumidityPressure
High93 °F (Sep 11, 4:00 PM)94% (Sep 21, 9:00 AM)30.18 "Hg (Sep 21, 9:00 AM)
Low61 °F (Sep 15, 6:30 AM)11% (Sep 16, 7:00 PM)29.92 "Hg (Sep 11, 3:00 PM)
Average74 °F47%30.05 "Hg
* Reported Sep 10 10:00 PM — Sep 25 10:30 PM, Marrakech, Weather by CustomWeather, © 2016

Note: Actual official high and low records may vary slightly from our data, if they occured in-between our weather recording intervals... More about our weather records

Advertising

Marrakech Weather History for the Previous 24 Hours

Scroll right to see more
 ConditionsComfort  
Time TempWeatherWind HumidityBarometerVisibility
10:30 PM
Sun, Sep 25
75 °FPassing clouds.8 mph54%30.04 "HgN/A
10:00 PM77 °FClear.12 mph51%30.04 "Hg10 mi
9:30 PM79 °FClear.13 mph45%30.04 "Hg10 mi
9:00 PM81 °FPassing clouds.12 mph39%30.04 "HgN/A
8:30 PM82 °FClear.10 mph35%30.01 "Hg10 mi
8:00 PM86 °FClear.5 mph27%30.01 "Hg10 mi
7:30 PM88 °FClear.5 mph24%29.98 "Hg10 mi
7:00 PM88 °FPassing clouds.3 mph24%29.98 "HgN/A
6:30 PM88 °FPassing clouds.6 mph24%29.98 "HgN/A
6:00 PM90 °FPassing clouds.6 mph24%29.98 "HgN/A
5:30 PM90 °FPassing clouds.7 mph22%29.98 "HgN/A
5:00 PM90 °FPassing clouds.6 mph24%29.98 "HgN/A
4:30 PM90 °FSunny.5 mph24%29.98 "Hg10 mi
4:00 PM88 °FPassing clouds.7 mph25%29.98 "HgN/A
3:30 PM88 °FPassing clouds.6 mph25%29.98 "HgN/A
3:00 PM86 °FSunny.5 mph29%30.01 "Hg10 mi
2:30 PM86 °FPassing clouds.5 mph29%30.01 "HgN/A
2:00 PM82 °FPassing clouds.6 mph32%30.01 "HgN/A
1:30 PM79 °FPassing clouds.7 mph42%30.01 "HgN/A
1:00 PM79 °FPassing clouds.7 mph42%30.04 "HgN/A
12:30 PM77 °FPassing clouds.6 mph44%30.04 "HgN/A
12:00 PM73 °FPassing clouds.5 mph50%30.07 "HgN/A
11:30 AM73 °FPassing clouds.5 mph53%30.07 "HgN/A
11:00 AM72 °FPassing clouds.5 mph57%30.07 "HgN/A
10:30 AM70 °FScattered clouds.7 mph60%30.09 "HgN/A
10:00 AM68 °FScattered clouds.6 mph64%30.09 "HgN/A
9:30 AM66 °FScattered clouds.5 mph68%30.12 "HgN/A
9:00 AM66 °FScattered clouds.5 mph68%30.12 "HgN/A
8:30 AM64 °FPassing clouds.5 mph73%30.09 "HgN/A
8:00 AM63 °FPassing clouds.7 mph77%30.09 "HgN/A
7:30 AM63 °FPassing clouds.5 mph77%30.09 "HgN/A
7:00 AM63 °FPassing clouds.8 mph77%30.09 "HgN/A
6:30 AM63 °FPassing clouds.7 mph77%30.07 "HgN/A
6:00 AM63 °FClear.3 mph77%30.07 "Hg10 mi
5:30 AM63 °FClear.1 mph77%30.07 "Hg10 mi
5:00 AM64 °FClear.No wind68%30.07 "Hg10 mi
4:30 AM64 °FMild.2 mph68%30.07 "HgN/A
4:00 AM63 °FClear.3 mph73%30.07 "Hg10 mi
3:30 AM64 °FClear.5 mph68%30.07 "Hg10 mi
3:00 AM68 °FPassing clouds.3 mph56%30.07 "HgN/A
2:30 AM70 °FClear.5 mph53%30.07 "Hg10 mi
2:00 AM70 °FClear.6 mph53%30.07 "Hg10 mi
1:30 AM72 °FClear.5 mph50%30.07 "Hg10 mi
1:00 AM72 °FClear.5 mph53%30.09 "Hg10 mi
12:30 AM72 °FClear.3 mph50%30.07 "Hg10 mi
12:00 AM72 °FClear.5 mph50%30.09 "Hg10 mi
11:30 PM
Sat, Sep 24
73 °FClear.7 mph47%30.09 "Hg10 mi
11:00 PM73 °FPassing clouds.7 mph47%30.09 "HgN/A
Weather by CustomWeather, © 2016

See weather overviewHow to use our weather pages